www.pogodaiklimat.ru

Погода и климат >> Архив погоды >> Австралия >> Victoria River Downs


ПОГОДА в Victoria River Downs

  • Прогноз погоды в Victoria River Downs
  • Монитор погоды в Victoria River Downs
  • Климат города

АРХИВ ПОГОДЫ в Victoria River Downs

Время (UTC), дата Ветер
(напр.,м/с)
 
Видим.   Явления Облачность Т
(С)
Тd
(С)
f
(%)
Тe
(С)
Тes
(С)
Комфортность P
(гПа)
Po
(гПа)
Тmin
(С)
Tmax
(С)
R
(мм)
R24
(мм)
S
(см)
05 17.04 В 5 н/о н/о +37.4 +3.2 12 +34 +34 очень
жарко
1009.3 999.1
08 17.04 В 3 н/о н/о +35.2 +3.7 14 +32 +32 жарко 1009.1 998.9
11 17.04 Ю 1 н/о н/о +24.5 +10.0 40 +25 +25 комфорт 1011.2 1001.0
14 17.04 Ю 2 н/о н/о +21.9 +11.0 50 +24 +24 комфорт 1011.5 1001.3 +37.9
17 17.04 З 2 н/о н/о +20.1 +8.8 48 +22 +22 комфорт 1011.0 1000.8
20 17.04 штиль 0 н/о н/о +17.2 +9.6 61 +17 +17 1011.5 1001.3
23 17.04 ЮВ 2 н/о н/о +27.1 +9.9 34 +28 +28 жарко 1012.9 1002.7
02 18.04 СВ 4 н/о н/о +34.9 +14.7 30 +36 +36 душно 1011.3 1001.1 +17.2
05 18.04 В 3 н/о н/о +37.0 +13.7 25 +37 +37 очень
жарко
1007.7 997.5
08 18.04 В 2 н/о н/о +34.7 +13.5 28 +35 +35 очень
жарко
1007.6 997.4
11 18.04 ЮВ 1 н/о н/о +29.0 +17.8 51 +33 +33 очень
душно
1009.7 999.5
14 18.04 штиль 0 н/о н/о +26.9 +16.5 53 +30 +30 душно 1010.1 999.9 +37.6
17 18.04 СВ 4 н/о н/о +28.2 +19.1 58 +34 +34 очень
душно
1010.0 999.8
20 18.04 В 2 н/о н/о +26.0 +18.9 65 +31 +31 очень
душно
1010.8 1000.6
23 18.04 В 2 25 км ясно +29.0 +18.7 54 +34 +37 очень
душно
1012.0 1001.8
02 19.04 СВ 4 н/о н/о +34.5 +14.9 31 +36 +36 душно 1010.6 1000.4 +24.7
05 19.04 В 5 н/о н/о +37.1 +12.5 23 +37 +37 очень
жарко
1007.6 997.4
08 19.04 В 4 н/о н/о +36.1 +11.7 23 +36 +36 очень
жарко
1007.8 997.6
11 19.04 СВ 3 н/о н/о +29.8 +14.0 38 +32 +32 душно 1010.0 999.8
14 19.04 В 2 н/о н/о +27.1 +15.5 49 +30 +30 душно 1010.3 1000.1 +38.2
17 19.04 СЗ 2 н/о н/о +24.3 +16.0 60 +28 +28 душно 1010.1 999.9
20 19.04 В 2 н/о н/о +22.9 +16.7 68 +28 +28 душно 1010.7 1000.5
23 19.04 В 3 10 км дым ясно +29.9 +18.7 51 +35 +37 очень
душно
1013.0 1002.8
02 20.04 СВ 4 н/о н/о +34.4 +15.3 32 +36 +36 душно 1011.8 1001.6 +22.9
05 20.04 ЮВ 5 н/о н/о +37.0 +10.3 20 +36 +36 очень
жарко
1008.6 998.4
08 20.04 В 4 н/о н/о +35.7 +8.5 19 +34 +34 очень
жарко
1008.6 998.4
11 20.04 СВ 2 н/о н/о +27.4 +11.0 36 +28 +28 жарко 1010.9 1000.7
17 20.04 ЮВ 2 н/о н/о +21.9 +12.5 55 +24 +24 комфорт 1010.9 1000.7
20 20.04 штиль 0 н/о н/о +19.6 +13.3 67 +21 +21 комфорт 1011.5 1001.3
23 20.04 СВ 2 н/о н/о +28.4 +14.3 42 +31 +31 душно 1013.1 1002.9
02 21.04 СВ 3 н/о н/о +34.8 +11.9 25 +35 +35 очень
жарко
1011.5 1001.3 +19.1
05 21.04 ЮВ 5 н/о н/о +37.6 +9.2 18 +36 +36 очень
жарко
1008.6 998.4
08 21.04 В 4 н/о н/о +36.2 +8.1 18 +34 +34 очень
жарко
1008.3 998.1
11 21.04 В 1 н/о н/о +27.1 +10.7 36 +28 +28 жарко 1010.4 1000.2
14 21.04 СВ 2 н/о н/о +24.9 +11.5 43 +26 +26 жарко 1010.7 1000.5 +38.6
17 21.04 штиль 0 н/о н/о +22.3 +14.2 60 +26 +26 жарко 1010.4 1000.2
20 21.04 штиль 0 н/о н/о +20.3 +13.5 65 +22 +22 комфорт 1011.3 1001.1
23 21.04 ЮВ 2 н/о н/о +28.1 +14.3 43 +30 +30 жарко 1012.9 1002.7
02 22.04 СВ 3 н/о н/о +34.3 +11.4 25 +34 +34 очень
жарко
1011.7 1001.5 +19.9
05 22.04 ЮВ 4 н/о н/о +37.0 +9.6 19 +36 +36 очень
жарко
1008.1 997.9
08 22.04 0 н/о н/о +35.8 +7.8 18 1008.0 997.8
11 22.04 В 2 н/о н/о +26.7 +9.5 34 +27 +27 жарко 1010.3 1000.1
14 22.04 штиль 0 н/о н/о +25.7 +11.1 40 +27 +27 жарко 1010.5 1000.3
17 22.04 Ю 3 н/о н/о +23.6 +13.2 52 +26 +26 жарко 1010.0 999.8
20 22.04 штиль 0 н/о н/о +21.5 +13.4 60 +24 +24 комфорт 1011.4 1001.2
02 23.04 В 3 н/о н/о +34.4 +6.7 18 +32 +32 жарко 1011.5 1001.3
05 23.04 В 4 н/о н/о +36.3 +5.5 15 +34 +34 очень
жарко
1008.5 998.3
08 23.04 ЮВ 4 н/о н/о +34.7 +6.9 18 +33 +33 жарко 1008.2 998.0
11 23.04 Ю 2 н/о н/о +26.9 +7.4 29 +27 +27 жарко 1010.4 1000.2
14 23.04 ЮВ 2 н/о н/о +24.7 +6.4 31 +25 +25 комфорт 1010.8 1000.6 +37.4
17 23.04 ЮВ 2 н/о н/о +21.2 +7.8 42 +22 +22 комфорт 1010.0 999.8

 

Местоположение метеостанции Victoria River Downs (Северная территория, Австралия): широта -16.40 долгота 131.02 высота над уровнем моря 90 м.

В архиве по умолчанию представлена погода в Victoria River Downs за последнюю неделю. Архивные данные за месяц целиком и за предыдущие месяцы, начиная с января 2011 года, Вы можете получить, выбрав интересующий диапазон дат из раскрывающегося списка и нажав кнопку "Ввод!".


*Определитесь, кто Вы:
робот инопланетянин человек

Внимание! Время в таблицах - всемирное. Для получения местного времени необходимо прибавить поправку, которая в Victoria River Downs равна 9.5 ч.

Смотрите также архив погоды в соседних городах и на ближайших метеорологических станциях:

Погода в Delamere Weapons Range (Северная территория, Австралия) (120 км)
Погода в Manbulloo Csiro (Северная территория, Австралия) (163 км)
Погода в Lajamanu (Северная территория, Австралия) (219 км)
Погода в Daly Waters Aws (Северная территория, Австралия) (251 км)
Погода в Tindal (Северная территория, Австралия) (255 км)
Погода в Kununurra (Западная Австралия, Австралия) (256 км)
Погода в Argyle Aero (Западная Австралия, Австралия) (275 км)
Погода в Cape Don Lighthouse (Северная территория, Австралия) (286 км)
Погода в Port Keats Aero (Северная территория, Австралия) (288 км)
Погода в Wyndham Aero (Западная Австралия, Австралия) (323 км)

Пояснения к столбцам:

Ветер - указаны скорость ветра в м/с - средняя за 10 мин, порывы в срок и между сроками (в фигурных скобках) и направление, откуда дует ветер: С - северный, СВ - северо-восточный, В - восточный, ЮВ - юго-восточный, Ю - южный, ЮЗ - юго-западный, З - западный, СЗ - северо-западный.
Видимость - горизонтальная дальность видимости в метрах или километрах. При видимости от 1 до 10 км при отсутствии осадков обычно наблюдается дымка, при ухудшении видимости до 1 км и менее - туман. В сухую погоду видимость может ухудшаться дымом, пылью или мглою.
Явления - указаны атмосферные явления, наблюдавшиеся в срок или в последний час перед сроком; фигурными скобками обозначены явления, наблюдавшиеся между сроками (за 1-3 часа до срока); квадратными скобками обозначены град или гололедные отложения с указанием их диаметра в мм.
Облачность - указаны через наклонную черту общая и нижняя облачность в баллах и высота нижней границы облаков в метрах; квадратными скобками обозначены формы облаков: Ci - перистые, Cs - перисто-слоистые, Cc - перисто-кучевые, Ac - высококучевые, As - высокослоистые, Sc - слоисто-кучевые, Ns - слоисто-дождевые, Cu - кучевые, Cb - кучево-дождевые. Подробнее классификацию облаков см. в Атласе облаков (PDF).
T - Температура воздуха - температура, измеренная на высоте 2 м над землей.
Td - Температура точки росы - температура, при понижении до которой содержащийся в воздухе водяной пар достигнет насыщения.
f - Относительная влажность воздуха - влажноcть воздуха, измеренная на высоте 2 м над землей.
Te - Эффективная температура - температура, которую ощущает одетый по сезону человек в тени. Характеристика душности погоды. При расчете учитывается влияние влажности воздуха и скорости ветра на теплоощущения человека.
Tes - Эффективная температура на солнце - температура, которую ощущает человек, с поправкой на солнечный нагрев. Характеристика знойности погоды. Зависит от высоты солнца над горизонтом, облачности и скорости ветра. Ночью, в пасмурную погоду, а также при ветре 12 м/с и более поправка равна нулю.
P - Атмосферное давление - приведенное к уровню моря атмосферное давление.
Po - Атмосферное давление - измеренное на уровне метеостанции атмосферное давление.
Tmin - Минимальная температура - минимум температуры воздуха на высоте 2 м над землей.
Tmax - Максимальная температура - максимум температуры воздуха на высоте 2 м над землей.
R - Количество осадков - Количество выпавших осадков за период времени, мм. При наведении курсора мыши на число - период времени, за который выпало указанное количество осадков.
R24 - Количество осадков - Количество выпавших осадков за 24 часа, мм.
S - Снежный покров - Высота снежного покрова, см. При наведении курсора мыши на число - состояние снежного покрова и степень покрытия местности в баллах.